This demonstration page uses our WeatherBlox Daily Observations layout. Learn more.

Left ArrowRight Arrow

39.08367, -84.50855

Hourly Observations for March 10, 2018

Temp ( °F °C ) Dew Point ( °F °C ) Humidity (%) Winds ( mph kmh ) Pressure ( in mb ) Visibility ( mi km ) Precip ( " mm )
12:53 am 00:53 Mostly Cloudy 33 0.6 25 -3.9 72 72 NE 5 7 30.01 1016 10 16.0934 0 0
1:53 am 01:53 Cloudy 34 1.1 23 -5 64 64 ENE 5 7 30.03 1017 10 16.0934 0 0
2:53 am 02:53 Cloudy 32 0 24 -4.4 73 73 NE 8 13 30.02 1017 10 16.0934 0 0
3:53 am 03:53 Cloudy 33 0.6 24 -4.4 70 70 NE 5 7 30.02 1017 10 16.0934 0 0
4:10 am 04:10 Cloudy 33 0.6 24 -4.4 70 70 NNE 6 9 30.03 1017 10 16.0934 0 0
4:40 am 04:40 Cloudy 33 0.6 23 -5 66 66 NE 6 9 30.03 1017 10 16.0934 0 0
4:53 am 04:53 Cloudy 33 0.6 23 -5 66 66 NE 7 11 30.03 1017 10 16.0934 0 0
5:42 am 05:42 Cloudy 33 0.6 23 -5 66 66 NE 5 7 30.03 1017 10 16.0934 0 0
5:53 am 05:53 Cloudy 33 0.6 23 -5 66 66 NE 5 7 30.04 1017 10 16.0934 0 0
6:53 am 06:53 Mostly Cloudy 33 0.6 23 -5 66 66 Calm 30.05 1018 10 16.0934 0 0
7:53 am 07:53 Mostly Cloudy 34 1.1 23 -5 64 64 NE 6 9 30.05 1018 10 16.0934 0 0
8:53 am 08:53 Mostly Cloudy 35 1.7 23 -5 61 61 ENE 7 11 30.06 1018 10 16.0934 0 0
9:53 am 09:53 Mostly Cloudy 37 2.8 24 -4.4 59 59 NE 5 7 30.08 1019 10 16.0934 0 0
10:16 am 10:16 Mostly Cloudy 40 4.4 25 -3.9 55 55 NNE 8 13 30.06 1018 10 16.0934 0 0
10:53 am 10:53 Cloudy 42 5.6 26 -3.3 53 53 NNE 6 9 30.07 1018 10 16.0934 0 0
11:53 am 11:53 Sunny 44 6.7 26 -3.3 49 49 VRB 3 6 30.06 1018 10 16.0934 0 0
12:53 pm 12:53 Sunny 47 8.3 26 -3.3 44 44 VRB 7 11 30.04 1017 10 16.0934 0 0
1:53 pm 13:53 Sunny 48 8.9 25 -3.9 41 41 E 8 13 30.01 1016 10 16.0934 0 0
2:53 pm 14:53 Sunny 50 10 23 -5 35 35 E 5 7 30 1016 10 16.0934 0 0
3:53 pm 15:53 Sunny 51 10.6 23 -5 33 33 NE 6 9 30.01 1016 10 16.0934 0 0
4:53 pm 16:53 Sunny 50 10 22 -5.6 33 33 N 3 6 30.02 1017 10 16.0934 0 0
5:53 pm 17:53 Sunny 47 8.3 23 -5 39 39 NE 6 9 30.04 1017 10 16.0934 0 0
6:53 pm 18:53 Clear 42 5.6 24 -4.4 49 49 ENE 6 9 30.04 1017 10 16.0934 0 0
7:53 pm 19:53 Clear 42 5.6 24 -4.4 49 49 NNE 5 7 30.07 1018 10 16.0934 0 0
8:53 pm 20:53 Clear 37 2.8 26 -3.3 65 65 NE 6 9 30.07 1018 10 16.0934 0 0
9:53 pm 21:53 Clear 38 3.3 23 -5 55 55 NNE 9 15 30.08 1019 10 16.0934 0 0
10:53 pm 22:53 Clear 35 1.7 23 -5 61 61 NE 7 11 30.1 1019 10 16.0934 0 0
11:53 pm 23:53 Clear 34 1.1 23 -5 64 64 NE 7 11 30.11 1020 10 16.0934 0 0

Powered by AerisWeather